CW0146 Weather Reports


Display with metric or nautical units.
time (UTC)temp
F
wind
direction
speed
MPH
gust
MPH
rain 1hr
in
rain 24hr
in
rain mn
in
humidity
%
barometer
mb
20260508185954 78 119 1.0 3.0 0.00 0.00 0.00 72 1011.0
20260508185454 78 60 2.0 3.0 0.00 0.00 0.00 73 1011.0
20260508184954 78 149 1.0 3.0 0.00 0.00 0.00 72 1011.0
20260508184454 77 194 0.0 3.0 0.00 0.00 0.00 74 1012.0
20260508183955 77 325 0.0 2.0 0.00 0.00 0.00 75 1012.0
20260508183454 77 133 2.0 3.0 0.00 0.00 0.00 74 1011.0
20260508182954 76 139 2.0 4.0 0.00 0.00 0.00 75 1012.0
20260508182454 77 103 1.0 2.0 0.00 0.00 0.00 73 1012.0
20260508181956 78 102 1.0 2.0 0.00 0.00 0.00 73 1012.0
20260508181457 78 83 2.0 3.0 0.00 0.00 0.00 71 1012.0
20260508180954 78 225 1.0 4.0 0.00 0.00 0.00 73 1012.0
20260508180454 78 105 1.0 2.0 0.00 0.00 0.00 72 1012.0
20260508175955 77 266 0.0 2.0 0.00 0.00 0.00 73 1012.0
20260508175455 76 114 1.0 2.0 0.00 0.00 0.00 75 1012.0
20260508174954 76 68 1.0 4.0 0.00 0.00 0.00 73 1012.0
20260508174454 76 37 0.0 1.0 0.00 0.00 0.00 75 1012.0
20260508173954 76 67 0.0 2.0 0.00 0.00 0.00 73 1012.0
20260508173454 75 304 2.0 4.0 0.00 0.00 0.00 74 1012.0
20260508172954 74 23 1.0 2.0 0.00 0.00 0.00 74 1012.0
20260508172454 74 50 1.0 2.0 0.00 0.00 0.00 76 1012.0
20260508171957 73 311 1.0 3.0 0.00 0.00 0.00 76 1012.0
20260508171454 73 54 1.0 2.0 0.00 0.00 0.00 77 1012.0
20260508170954 72 319 2.0 2.0 0.00 0.00 0.00 77 1012.0
20260508170455 72 53 0.0 1.0 0.00 0.00 0.00 78 1012.0
20260508165955 72 321 1.0 2.0 0.00 0.00 0.00 78 1012.0
20260508165454 72 49 1.0 2.0 0.00 0.00 0.00 78 1012.0
20260508164954 71 5 0.0 1.0 0.00 0.00 0.00 78 1013.0
20260508164007 71 82 0.0 1.0 0.00 0.00 0.00 78 1013.0
20260508163455 71 288 0.0 2.0 0.00 0.00 0.00 78 1013.0
20260508162954 71 56 1.0 2.0 0.00 0.00 0.00 78 1013.0
20260508162455 71 58 1.0 2.0 0.00 0.00 0.00 77 1013.0
20260508161955 71 166 0.0 1.0 0.00 0.00 0.00 77 1013.0
20260508161454 71 299 1.0 2.0 0.00 0.00 0.00 77 1013.0
20260508160955 71 262 1.0 3.0 0.00 0.00 0.00 77 1013.0
20260508160454 70 245 0.0 2.0 0.00 0.00 0.00 78 1013.0
20260508155954 69 320 0.0 2.0 0.00 0.00 0.00 81 1013.0
20260508155454 69 70 1.0 2.0 0.00 0.00 0.00 81 1013.0
20260508154957 68 250 0.0 1.0 0.00 0.00 0.00 81 1013.0
20260508154454 68 74 1.0 2.0 0.00 0.00 0.00 80 1013.0
20260508153954 68 308 2.0 3.0 0.00 0.00 0.00 80 1013.0
20260508153454 68 119 0.0 1.0 0.00 0.00 0.00 82 1013.0
20260508152954 68 189 0.0 1.0 0.00 0.00 0.00 81 1013.0
20260508152454 68 321 0.0 1.0 0.00 0.00 0.00 81 1013.0
20260508151954 67 182 1.0 2.0 0.00 0.00 0.00 82 1013.0
20260508151454 67 191 1.0 2.0 0.00 0.00 0.00 82 1013.0
20260508150954 67 172 0.0 1.0 0.00 0.00 0.00 82 1013.0
20260508150454 66 63 0.0 2.0 0.00 0.00 0.00 83 1013.0
20260508145955 66 221 1.0 2.0 0.00 0.00 0.00 83 1013.0
20260508145454 66 74 0.0 2.0 0.00 0.00 0.00 83 1013.0
20260508144954 66 53 1.0 2.0 0.00 0.00 0.00 83 1013.0
20260508144456 66 51 1.0 2.0 0.00 0.00 0.00 83 1013.0
20260508143955 65 57 1.0 1.0 0.00 0.00 0.00 83 1013.0
20260508143455 65 77 2.0 4.0 0.00 0.00 0.00 83 1013.0
20260508142955 65 91 2.0 4.0 0.00 0.00 0.00 83 1013.0
20260508142454 65 83 2.0 4.0 0.00 0.00 0.00 83 1013.0
20260508141954 65 76 1.0 2.0 0.00 0.00 0.00 83 1013.0
20260508141454 64 86 2.0 4.0 0.00 0.00 0.00 84 1013.0
20260508140954 64 252 1.0 3.0 0.00 0.00 0.00 84 1014.0
20260508140455 64 68 2.0 3.0 0.00 0.00 0.00 84 1013.0
20260508135955 64 95 1.0 4.0 0.00 0.00 0.00 84 1013.0
20260508135454 64 101 2.0 3.0 0.00 0.00 0.00 84 1014.0
20260508134954 64 93 2.0 4.0 0.00 0.00 0.00 83 1014.0
20260508134454 64 23 0.0 1.0 0.00 0.00 0.00 84 1014.0
20260508133955 64 304 0.0 2.0 0.00 0.00 0.00 84 1013.0
20260508133454 64 73 1.0 1.0 0.00 0.00 0.00 85 1013.0
20260508132954 63 73 0.0 0.0 0.00 0.00 0.00 84 1014.0
20260508132455 63 44 0.0 1.0 0.00 0.00 0.00 84 1014.0
20260508131954 63 64 1.0 2.0 0.00 0.00 0.00 85 1014.0
20260508131454 63 98 0.0 2.0 0.00 0.00 0.00 85 1014.0
20260508130954 63 77 1.0 2.0 0.00 0.00 0.00 85 1014.0
20260508130454 63 91 0.0 1.0 0.00 0.00 0.00 85 1014.0
20260508125954 62 91 1.0 2.0 0.00 0.00 0.00 85 1014.0
20260508125454 62 77 0.0 1.0 0.00 0.00 0.00 85 1014.0
20260508124954 62 74 1.0 2.0 0.00 0.00 0.00 85 1014.0
20260508124454 62 81 1.0 2.0 0.00 0.00 0.00 85 1014.0
20260508123954 62 77 2.0 2.0 0.00 0.00 0.00 85 1014.0
20260508123454 62 85 1.0 2.0 0.00 0.00 0.00 85 1014.0
20260508122955 62 128 0.0 1.0 0.00 0.00 0.00 85 1014.0
20260508122454 62 54 1.0 1.0 0.00 0.00 0.00 85 1014.0
20260508121954 62 123 0.0 1.0 0.00 0.00 0.00 86 1014.0
20260508121455 62 107 1.0 2.0 0.00 0.00 0.00 86 1014.0
20260508120954 62 99 0.0 1.0 0.00 0.00 0.00 86 1014.0
20260508120454 62 90 1.0 2.0 0.00 0.00 0.00 86 1014.0
20260508115954 62 99 0.0 1.0 0.00 0.00 0.00 86 1014.0
20260508115454 62 102 1.0 2.0 0.00 0.00 0.00 86 1014.0
20260508114954 62 104 1.0 2.0 0.00 0.00 0.00 86 1014.0
20260508114455 62 80 1.0 2.0 0.00 0.00 0.00 86 1014.0
20260508113954 62 6 1.0 2.0 0.00 0.00 0.00 86 1015.0
20260508113454 62 74 0.0 1.0 0.00 0.00 0.00 85 1015.0
20260508112954 62 104 1.0 2.0 0.00 0.00 0.00 85 1015.0
20260508112455 62 77 1.0 2.0 0.00 0.00 0.00 86 1015.0
20260508111954 62 86 1.0 2.0 0.00 0.00 0.00 86 1015.0
20260508111455 62 121 0.0 2.0 0.00 0.00 0.00 86 1014.0
20260508110956 62 106 1.0 2.0 0.00 0.00 0.00 86 1014.0
20260508110454 62 103 1.0 2.0 0.00 0.00 0.00 85 1014.0
20260508105954 62 55 1.0 2.0 0.00 0.00 0.00 85 1014.0
20260508105454 62 78 2.0 3.0 0.00 0.00 0.00 85 1014.0
20260508104954 62 88 1.0 2.0 0.00 0.00 0.00 85 1014.0
20260508104456 62 84 1.0 2.0 0.00 0.00 0.00 85 1014.0
20260508103954 62 56 1.0 2.0 0.00 0.00 0.00 86 1014.0
20260508103454 62 82 1.0 2.0 0.00 0.00 0.00 86 1014.0
20260508102955 62 31 1.0 2.0 0.00 0.00 0.00 86 1014.0
20260508102454 62 111 0.0 1.0 0.00 0.00 0.00 85 1014.0
20260508101955 62 86 1.0 2.0 0.00 0.00 0.00 85 1015.0
20260508101454 62 5 1.0 2.0 0.00 0.00 0.00 85 1015.0
20260508100955 62 80 1.0 2.0 0.00 0.00 0.00 85 1015.0
20260508100454 62 39 1.0 3.0 0.00 0.00 0.00 85 1015.0
20260508095954 62 27 1.0 3.0 0.00 0.00 0.00 85 1015.0
20260508095454 62 76 1.0 2.0 0.00 0.00 0.00 85 1015.0
20260508094954 62 3 1.0 2.0 0.00 0.00 0.00 86 1015.0
20260508094454 62 57 0.0 1.0 0.00 0.00 0.00 86 1015.0
20260508093954 62 357 1.0 3.0 0.00 0.00 0.00 85 1015.0
20260508093454 62 6 0.0 1.0 0.00 0.00 0.00 85 1015.0
20260508092954 62 96 0.0 1.0 0.00 0.00 0.00 85 1015.0
20260508092454 62 48 0.0 1.0 0.00 0.00 0.00 85 1014.0
20260508091954 62 80 0.0 1.0 0.00 0.00 0.00 84 1014.0
20260508091454 62 127 0.0 1.0 0.00 0.00 0.00 84 1014.0
20260508090954 62 81 0.0 2.0 0.00 0.00 0.00 83 1014.0
20260508090454 62 69 0.0 1.0 0.00 0.00 0.00 83 1014.0
20260508085954 62 93 0.0 2.0 0.00 0.00 0.00 83 1014.0
20260508085454 62 93 0.0 1.0 0.00 0.00 0.00 84 1014.0
20260508084954 62 85 1.0 2.0 0.00 0.00 0.00 84 1014.0
20260508084454 62 104 0.0 1.0 0.00 0.00 0.00 84 1014.0
20260508083954 62 113 1.0 2.0 0.00 0.00 0.00 84 1014.0
20260508083010 62 93 0.0 2.0 0.00 0.00 0.00 84 1014.0
20260508082454 62 64 0.0 1.0 0.00 0.00 0.00 84 1014.0
20260508081954 62 107 1.0 1.0 0.00 0.00 0.00 84 1014.0
20260508081454 62 98 0.0 1.0 0.00 0.00 0.00 84 1014.0
20260508080954 61 99 1.0 2.0 0.00 0.00 0.00 84 1014.0
20260508080454 61 98 1.0 3.0 0.00 0.00 0.00 84 1014.0
20260508075954 61 74 0.0 2.0 0.00 0.00 0.00 85 1014.0
20260508075454 61 153 0.0 1.0 0.00 0.00 0.00 86 1014.0
20260508074954 61 117 1.0 2.0 0.00 0.00 0.00 86 1014.0
20260508074456 61 106 1.0 2.0 0.00 0.00 0.00 86 1014.0
20260508073954 61 97 1.0 2.0 0.00 0.00 0.00 86 1014.0
20260508073454 61 112 1.0 2.0 0.00 0.00 0.00 87 1014.0
20260508072954 61 102 1.0 2.0 0.00 0.00 0.00 87 1014.0
20260508072454 61 85 0.0 1.0 0.00 0.00 0.00 87 1014.0
20260508071954 61 73 1.0 2.0 0.00 0.00 0.00 87 1014.0
20260508071454 61 100 0.0 1.0 0.00 0.00 0.00 88 1014.0
20260508070954 60 99 1.0 2.0 0.00 0.00 0.00 88 1014.0
20260508070454 60 107 1.0 2.0 0.00 0.00 0.00 88 1015.0
20260508065954 60 119 0.0 2.0 0.00 0.00 0.00 88 1015.0
20260508065454 60 131 0.0 2.0 0.00 0.00 0.00 88 1015.0
20260508064954 60 96 1.0 2.0 0.00 0.00 0.00 88 1015.0
20260508064455 60 95 1.0 2.0 0.00 0.00 0.00 89 1015.0
20260508063958 60 96 1.0 2.0 0.00 0.00 0.00 89 1015.0
20260508063454 60 100 1.0 2.0 0.00 0.00 0.00 89 1015.0
20260508062954 60 100 1.0 2.0 0.00 0.00 0.00 89 1015.0
20260508062454 60 113 1.0 2.0 0.00 0.00 0.00 89 1015.0
20260508061954 60 104 1.0 2.0 0.00 0.00 0.00 89 1016.0
20260508061454 60 110 1.0 3.0 0.00 0.00 0.00 89 1015.0
20260508060954 60 94 0.0 2.0 0.00 0.00 0.00 89 1015.0
20260508060454 60 110 1.0 2.0 0.00 0.00 0.00 89 1015.0
20260508055954 60 125 1.0 2.0 0.00 0.00 0.00 89 1015.0
20260508055454 60 105 1.0 2.0 0.00 0.00 0.00 89 1015.0
20260508054955 60 97 1.0 2.0 0.00 0.00 0.00 89 1015.0
20260508054454 60 100 1.0 2.0 0.00 0.00 0.00 88 1015.0
20260508053954 60 81 1.0 2.0 0.00 0.00 0.00 88 1015.0
20260508053454 60 68 1.0 2.0 0.00 0.00 0.00 88 1015.0
20260508052954 60 107 1.0 2.0 0.00 0.00 0.00 88 1015.0
20260508052454 60 62 1.0 1.0 0.00 0.00 0.00 88 1015.0
20260508051954 60 30 0.0 2.0 0.00 0.00 0.00 88 1015.0
20260508051454 60 106 1.0 2.0 0.00 0.00 0.00 88 1015.0
20260508050954 60 97 1.0 2.0 0.00 0.00 0.00 88 1015.0
20260508050454 60 95 1.0 2.0 0.00 0.00 0.00 88 1015.0
20260508045954 61 99 1.0 2.0 0.00 0.00 0.00 87 1016.0
20260508045454 61 127 1.0 2.0 0.00 0.00 0.00 87 1016.0
20260508044954 61 271 0.0 1.0 0.00 0.00 0.00 86 1016.0
20260508044454 61 53 1.0 1.0 0.00 0.00 0.00 86 1015.0
20260508043954 60 278 1.0 2.0 0.00 0.00 0.00 86 1015.0
20260508043454 60 120 0.0 2.0 0.00 0.00 0.00 86 1015.0
20260508042954 60 95 1.0 2.0 0.00 0.00 0.00 86 1015.0
20260508042455 60 92 2.0 3.0 0.00 0.00 0.00 86 1015.0
20260508041954 60 66 1.0 2.0 0.00 0.00 0.00 86 1016.0
20260508041454 60 296 1.0 2.0 0.00 0.00 0.00 86 1016.0
20260508040954 60 107 0.0 1.0 0.00 0.00 0.00 86 1016.0
20260508040454 61 96 1.0 2.0 0.00 0.00 0.00 86 1016.0
20260508035955 61 72 1.0 1.0 0.00 0.00 0.00 85 1016.0
20260508035455 61 98 1.0 2.0 0.00 0.00 0.00 85 1016.0
20260508034954 61 108 1.0 3.0 0.00 0.00 0.00 85 1016.0
20260508034454 61 127 0.0 1.0 0.00 0.00 0.00 84 1016.0
20260508033954 61 109 1.0 2.0 0.00 0.00 0.00 84 1016.0
20260508033454 61 135 1.0 2.0 0.00 0.00 0.00 84 1016.0
20260508032954 61 4 1.0 2.0 0.00 0.00 0.00 84 1016.0
20260508032454 61 354 1.0 2.0 0.00 0.00 0.00 84 1016.0
20260508031954 61 358 0.0 1.0 0.00 0.00 0.00 84 1016.0
20260508031454 61 106 0.0 2.0 0.00 0.00 0.00 83 1016.0
20260508030954 61 105 0.0 2.0 0.00 0.00 0.00 83 1015.0
20260508030454 61 108 1.0 2.0 0.00 0.00 0.00 83 1015.0
20260508025954 62 118 1.0 2.0 0.00 0.00 0.00 82 1016.0
20260508025454 62 120 0.0 3.0 0.00 0.00 0.00 82 1015.0
20260508024955 62 103 1.0 2.0 0.00 0.00 0.00 82 1015.0
20260508024454 62 129 1.0 2.0 0.00 0.00 0.00 82 1015.0
20260508023954 62 126 0.0 2.0 0.00 0.00 0.00 81 1015.0
20260508023454 62 319 0.0 1.0 0.00 0.00 0.00 81 1015.0
20260508022954 62 99 1.0 2.0 0.00 0.00 0.00 81 1014.0
20260508022454 62 79 1.0 2.0 0.00 0.00 0.00 80 1014.0
20260508021954 62 88 1.0 2.0 0.00 0.00 0.00 80 1014.0
20260508021454 62 132 0.0 1.0 0.00 0.00 0.00 80 1014.0
20260508020954 62 70 1.0 2.0 0.00 0.00 0.00 79 1014.0
20260508020454 62 99 1.0 2.0 0.00 0.00 0.00 79 1014.0
20260508015957 62 74 1.0 2.0 0.00 0.00 0.00 79 1014.0
20260508015454 62 64 1.0 2.0 0.00 0.00 0.00 79 1014.0
20260508014954 63 106 1.0 2.0 0.00 0.00 0.00 79 1015.0
20260508014454 63 99 0.0 2.0 0.00 0.00 0.00 78 1014.0
20260508013954 63 70 1.0 1.0 0.00 0.00 0.00 77 1014.0
20260508013454 63 69 1.0 2.0 0.00 0.00 0.00 77 1014.0
20260508012955 63 79 1.0 2.0 0.00 0.00 0.00 77 1014.0
20260508012454 63 59 2.0 3.0 0.00 0.00 0.00 76 1014.0
20260508011954 63 76 2.0 3.0 0.00 0.00 0.00 76 1014.0
20260508011454 63 69 1.0 2.0 0.00 0.00 0.00 76 1014.0
20260508010954 63 77 1.0 2.0 0.00 0.00 0.00 75 1014.0
20260508010454 64 78 1.0 2.0 0.00 0.00 0.00 75 1015.0
20260508005954 64 19 1.0 3.0 0.00 0.00 0.00 74 1015.0
20260508005454 64 98 0.0 1.0 0.00 0.00 0.00 74 1015.0
20260508004954 64 76 3.0 4.0 0.00 0.00 0.00 74 1015.0
20260508004455 64 3 0.0 1.0 0.00 0.00 0.00 73 1015.0
20260508003955 64 65 2.0 3.0 0.00 0.00 0.00 73 1015.0
20260508003454 64 10 1.0 3.0 0.00 0.00 0.00 72 1015.0
20260508002954 65 78 2.0 4.0 0.00 0.00 0.00 71 1015.0
20260508002454 65 95 0.0 1.0 0.00 0.00 0.00 71 1015.0
20260508001955 65 68 2.0 2.0 0.00 0.00 0.00 70 1015.0
20260508001454 65 62 1.0 2.0 0.00 0.00 0.00 71 1015.0
20260508000954 65 47 1.0 2.0 0.00 0.00 0.00 70 1015.0
20260508000457 65 66 2.0 2.0 0.00 0.00 0.00 70 1016.0
20260507235954 65 333 1.0 2.0 0.00 0.00 0.00 71 1016.0
20260507235454 65 73 1.0 1.0 0.00 0.00 0.00 69 1016.0
20260507234954 66 74 1.0 3.0 0.00 0.00 0.00 69 1016.0
20260507234454 66 69 1.0 3.0 0.00 0.00 0.00 69 1016.0
20260507233954 66 59 2.0 3.0 0.00 0.00 0.00 70 1015.0
20260507233455 66 86 0.0 1.0 0.00 0.00 0.00 70 1016.0
20260507232954 66 40 0.0 1.0 0.00 0.00 0.00 70 1016.0
20260507232454 66 65 1.0 2.0 0.00 0.00 0.00 71 1015.0
20260507231954 67 60 2.0 3.0 0.00 0.00 0.00 69 1015.0
20260507231454 67 48 1.0 2.0 0.00 0.00 0.00 68 1015.0
20260507230954 67 356 1.0 2.0 0.00 0.00 0.00 68 1015.0
20260507230454 67 55 1.0 2.0 0.00 0.00 0.00 69 1015.0
20260507225954 67 59 0.0 1.0 0.00 0.00 0.00 69 1015.0
20260507225454 67 35 1.0 2.0 0.00 0.00 0.00 69 1015.0
20260507224954 67 64 1.0 2.0 0.00 0.00 0.00 68 1015.0
20260507224454 67 54 0.0 1.0 0.00 0.00 0.00 69 1015.0
20260507223954 67 45 1.0 2.0 0.00 0.00 0.00 68 1015.0
20260507223454 67 61 2.0 3.0 0.00 0.00 0.00 68 1016.0
20260507222954 67 17 1.0 2.0 0.00 0.00 0.00 69 1016.0
20260507222454 67 65 1.0 2.0 0.00 0.00 0.00 69 1016.0
20260507221954 67 20 1.0 2.0 0.00 0.00 0.00 69 1016.0
20260507221456 67 19 1.0 3.0 0.00 0.00 0.00 68 1016.0
20260507220954 67 345 2.0 3.0 0.00 0.00 0.00 67 1016.0
20260507220455 67 35 2.0 6.0 0.00 0.00 0.00 69 1016.0
20260507215954 67 347 1.0 2.0 0.00 0.00 0.00 69 1016.0
20260507215454 67 7 2.0 3.0 0.00 0.00 0.00 68 1016.0
20260507214954 68 356 2.0 4.0 0.00 0.00 0.00 68 1016.0
20260507214455 68 312 2.0 3.0 0.00 0.00 0.00 67 1016.0
20260507213954 68 331 3.0 6.0 0.00 0.00 0.00 68 1016.0
20260507213455 68 13 1.0 4.0 0.00 0.00 0.00 69 1016.0
20260507212954 67 349 1.0 3.0 0.00 0.00 0.00 69 1016.0
20260507212454 66 39 1.0 2.0 0.00 0.00 0.00 70 1016.0
20260507211954 66 57 1.0 2.0 0.00 0.00 0.00 70 1015.0
20260507211454 66 45 1.0 2.0 0.00 0.00 0.00 71 1015.0
20260507210955 65 47 2.0 4.0 0.00 0.00 0.00 72 1016.0
20260507210454 65 54 2.0 3.0 0.00 0.00 0.00 71 1016.0
20260507205954 66 80 1.0 2.0 0.00 0.00 0.00 72 1016.0
20260507205454 66 73 2.0 4.0 0.00 0.00 0.00 71 1017.0
20260507204954 66 9 2.0 5.0 0.00 0.00 0.00 71 1017.0
20260507204454 66 326 1.0 3.0 0.00 0.00 0.00 71 1017.0
20260507203955 66 340 1.0 4.0 0.00 0.00 0.00 71 1016.0
20260507203454 66 21 1.0 2.0 0.00 0.00 0.00 72 1017.0
20260507202954 66 12 1.0 4.0 0.00 0.00 0.00 71 1017.0
20260507202454 66 358 1.0 2.0 0.00 0.00 0.00 71 1017.0
20260507201954 66 321 1.0 3.0 0.00 0.00 0.00 71 1017.0
20260507201454 66 71 2.0 2.0 0.00 0.00 0.00 72 1016.0
20260507200957 65 65 2.0 2.0 0.00 0.00 0.00 72 1017.0
20260507200454 65 326 0.0 2.0 0.00 0.00 0.00 72 1017.0
20260507195954 65 44 1.0 3.0 0.00 0.00 0.00 71 1016.0
20260507195454 65 38 1.0 2.0 0.00 0.00 0.00 72 1017.0
20260507194954 65 23 1.0 2.0 0.00 0.00 0.00 72 1017.0
20260507194454 65 356 1.0 2.0 0.00 0.00 0.00 72 1017.0
20260507193954 65 57 2.0 3.0 0.00 0.00 0.00 72 1017.0
20260507193454 64 240 1.0 2.0 0.00 0.00 0.00 74 1017.0
20260507192954 64 55 2.0 3.0 0.00 0.00 0.00 73 1017.0
20260507192454 64 4 1.0 2.0 0.00 0.00 0.00 74 1017.0
20260507191954 63 56 2.0 3.0 0.00 0.00 0.00 74 1017.0
20260507191454 63 66 2.0 4.0 0.00 0.00 0.00 74 1017.0
20260507190954 63 67 2.0 3.0 0.00 0.00 0.00 74 1018.0
20260507190454 63 58 1.0 2.0 0.00 0.00 0.00 74 1018.0